Theta_e
299 299 299 300 300 300 300 300 300 300 301 301 302 302 302 301 301 302 302 303 303 303 303 303 304 304 304 304 304 306 305 305 306 305 305 304 304 304 304 305 303 303 304 304 305 305 305 305 305 305 306 305 304 305 305 303 303 307 309 309 308 306 305 304 304 303 303 303 303 303 302 303 303 303 302 302 302 303 302 302 302 302 302 301 299 298 297 296
299 299 299 299 300 300 300 300 300 300 301 301 301 301 301 301 301 302 303 303 304 304 304 304 304 304 304 304 304 306 306 306 306 305 304 304 304 304 305 304 303 303 303 304 304 305 305 304 305 306 306 304 304 305 305 303 304 306 307 306 305 304 303 302 303 302 303 303 303 303 302 303 303 302 303 303 304 303 303 303 303 303 302 301 300 298 297 296
298 299 299 300 300 300 300 300 300 300 300 300 301 301 301 301 302 303 303 304 304 303 303 304 304 304 304 304 305 306 305 306 306 303 304 304 304 305 305 304 303 303 303 304 304 304 304 303 304 306 305 304 303 305 305 304 303 303 305 305 303 303 302 302 302 302 302 302 303 303 302 302 302 301 303 304 304 304 304 303 303 303 302 301 300 299 297 297
299 299 299 300 300 300 300 300 300 300 300 300 301 301 301 302 302 303 303 303 304 303 303 303 304 304 304 304 305 305 305 308 305 302 304 303 304 305 305 305 303 303 303 303 303 303 303 304 306 305 305 304 304 304 303 303 303 303 304 304 302 303 303 302 302 301 301 301 302 303 302 303 302 301 303 304 304 304 304 303 302 302 300 300 300 299 297 298
299 300 300 300 300 300 300 300 300 301 301 301 301 301 302 302 303 303 303 303 304 304 304 303 304 304 305 305 305 304 306 309 305 302 303 303 304 305 305 305 304 304 303 303 304 304 305 306 307 306 305 305 305 304 302 302 303 303 303 303 302 303 303 302 301 301 300 300 302 303 303 303 302 302 303 303 304 304 303 302 301 300 299 299 299 298 298 298
300 300 300 300 300 300 300 300 300 301 301 301 302 302 302 303 303 303 304 304 304 305 305 304 304 305 305 305 305 306 308 307 303 302 303 302 304 305 305 305 305 304 304 304 305 306 306 306 307 306 305 304 304 304 303 302 302 303 302 302 302 302 303 301 301 300 299 301 302 302 302 302 303 303 302 302 304 302 302 301 300 299 298 298 298 298 299 299
300 301 301 300 301 301 300 301 301 301 302 302 302 302 302 303 303 304 304 304 305 305 305 305 304 305 305 305 305 306 307 304 302 302 303 302 304 305 305 306 306 306 306 306 307 308 307 306 306 306 306 305 304 304 304 304 304 304 302 302 301 302 302 300 300 299 299 301 301 301 301 302 303 303 302 302 303 301 301 300 298 298 298 298 299 300 300 299
300 301 301 301 301 301 301 301 301 302 302 302 302 303 303 304 304 304 304 304 304 304 305 305 304 304 304 305 308 307 304 303 302 302 302 303 304 305 306 306 306 307 306 305 306 308 308 307 306 306 306 305 304 304 304 305 305 304 303 302 301 301 301 299 299 300 301 301 299 300 302 302 302 302 302 302 301 300 300 300 298 299 300 300 301 301 300 299
300 301 302 302 301 301 301 301 302 302 302 303 303 303 304 304 304 304 304 304 305 304 305 305 304 305 304 306 311 308 303 302 302 302 302 303 304 305 305 306 306 306 306 304 305 308 308 307 306 306 305 303 304 304 304 305 305 303 303 303 302 301 301 300 300 300 301 301 300 303 303 303 301 300 302 302 301 300 300 301 300 300 301 301 301 301 300 299
301 302 302 302 302 302 302 302 303 303 303 304 303 304 304 304 304 304 305 305 305 305 305 306 305 305 305 308 310 307 303 302 302 302 302 302 303 304 304 305 305 305 305 304 304 306 308 307 307 307 306 304 304 304 304 305 304 303 303 302 301 301 301 301 301 300 300 300 301 304 304 303 301 301 303 302 300 299 300 302 301 301 301 301 301 301 300 299
301 302 302 302 302 302 302 303 303 303 304 303 304 304 304 304 304 304 305 305 305 305 305 305 305 306 306 307 308 305 302 302 302 302 302 303 303 303 303 303 304 304 304 304 303 303 305 305 305 308 308 306 304 304 303 303 303 302 302 302 300 300 301 301 301 301 301 301 300 301 303 304 303 303 302 301 300 299 300 302 302 302 302 301 301 302 301 299
301 302 303 302 302 302 303 303 303 304 303 304 304 304 304 304 305 305 305 305 305 305 305 305 305 305 306 306 305 304 303 302 302 302 302 303 303 302 302 303 303 304 304 304 302 302 303 303 305 309 308 306 304 304 303 301 302 301 302 304 302 302 302 301 301 301 301 302 299 299 303 304 304 303 301 300 299 299 301 302 303 302 302 301 301 301 301 300
302 302 302 303 303 304 304 304 304 304 304 304 304 304 305 305 305 306 306 306 305 306 306 306 306 306 307 306 303 303 303 302 303 303 303 303 303 302 302 303 303 303 303 303 302 302 303 304 305 307 306 305 303 303 304 301 301 302 302 304 304 305 304 301 300 301 302 301 298 300 304 304 303 302 301 300 299 301 303 303 303 302 302 301 301 301 301 301
302 303 303 304 304 304 305 305 305 305 304 304 304 304 305 305 305 306 306 306 306 306 306 307 307 306 308 306 303 303 303 303 303 303 303 303 303 303 303 303 303 304 304 303 302 302 303 303 305 305 304 304 303 302 303 302 302 303 303 304 306 308 306 301 299 301 302 301 299 301 304 304 303 303 301 300 299 301 303 303 303 302 302 301 301 301 301 301
302 303 304 304 305 305 305 305 305 305 305 305 305 304 305 305 305 305 306 307 307 307 307 307 307 307 308 305 303 303 303 303 303 302 303 303 302 303 304 303 303 303 304 303 303 303 303 304 305 305 303 303 304 305 305 304 304 305 307 308 307 307 306 302 298 299 302 301 300 302 304 304 303 303 301 299 299 301 302 303 303 302 302 302 302 301 301 301
302 303 303 304 305 305 304 304 304 304 305 305 305 305 305 305 305 305 305 306 308 308 307 307 307 308 310 306 304 304 303 303 303 302 303 303 302 302 303 304 303 304 304 303 303 303 303 304 303 303 303 304 304 306 308 309 308 306 308 308 306 306 307 304 300 299 300 302 302 303 304 304 303 303 302 299 300 302 303 303 303 302 302 302 302 301 301 301
302 303 303 304 304 304 304 303 304 305 305 305 305 305 306 306 305 305 305 306 307 308 308 307 305 309 310 306 305 305 303 302 303 303 303 303 303 302 303 304 303 303 305 305 304 305 305 305 304 304 304 304 303 305 310 313 311 308 307 307 305 304 305 306 303 300 300 302 303 304 304 304 303 303 302 300 299 301 303 303 302 302 302 302 302 301 301 301
302 302 303 303 303 304 304 303 304 305 306 306 305 306 307 306 306 306 306 306 306 308 309 307 307 311 310 306 305 304 303 302 303 302 303 304 303 303 303 303 302 304 308 308 306 306 306 305 306 305 304 303 303 307 311 310 307 306 306 306 305 304 304 304 304 300 299 302 303 303 304 303 303 303 303 302 300 301 302 302 302 302 302 302 301 301 301 301
302 302 302 303 303 303 303 304 306 306 306 306 306 306 306 306 307 306 305 306 309 311 310 307 308 311 309 306 303 302 302 303 303 303 303 304 303 304 303 303 305 308 311 310 306 304 304 305 305 305 303 301 300 303 305 304 303 304 303 304 304 304 304 303 302 299 297 302 303 302 303 303 303 303 302 302 301 302 302 302 303 302 302 302 301 301 301 301
302 303 302 303 303 303 303 305 307 307 307 306 306 307 309 312 311 307 303 304 305 305 307 307 307 308 307 304 302 302 304 304 304 303 303 303 303 305 305 305 310 309 307 307 306 305 304 304 303 302 301 299 298 298 299 299 300 302 302 303 303 303 305 302 301 298 297 302 303 301 302 303 302 302 302 301 301 302 302 302 302 302 302 302 301 302 302 301
302 303 303 303 303 303 303 305 307 307 307 306 307 309 311 314 314 308 303 302 300 300 304 304 303 304 303 302 300 300 304 307 307 304 303 303 303 306 306 307 312 308 305 304 305 307 306 304 301 299 299 297 296 297 298 299 300 301 303 303 304 304 304 302 300 299 298 302 304 301 302 303 302 302 301 301 301 302 301 301 302 301 301 302 301 302 301 301
302 303 303 303 303 303 303 305 307 307 308 307 307 307 305 306 307 305 305 306 302 299 302 301 302 304 301 301 300 300 304 308 309 306 302 304 306 308 306 306 308 306 306 306 307 310 308 303 300 297 297 297 297 297 298 300 300 302 303 304 305 304 303 302 300 298 299 302 304 302 302 303 302 301 301 301 300 301 300 300 300 301 301 301 301 301 301 301
302 303 303 304 304 303 303 305 307 307 308 307 306 303 302 303 303 303 305 308 305 301 303 304 304 305 304 303 301 302 305 305 306 305 302 304 306 306 306 305 305 305 306 308 309 310 308 304 299 296 296 298 299 298 298 300 302 303 303 304 305 302 302 305 302 298 299 301 302 300 301 303 302 301 301 300 300 300 300 300 300 300 300 300 300 299 299 299
302 303 303 304 304 304 303 304 306 306 306 305 304 302 302 303 303 303 305 308 308 304 302 302 302 304 304 303 301 303 306 303 303 303 300 303 305 304 304 303 304 304 303 305 307 306 305 301 297 296 297 298 299 299 299 302 303 302 301 303 303 300 300 302 301 299 300 300 299 300 304 305 303 302 302 301 300 300 300 300 300 300 299 299 299 300 299 299
303 303 303 303 304 304 303 303 305 305 304 304 303 303 303 303 302 303 308 311 310 307 303 301 302 302 301 301 301 302 304 304 302 302 300 301 304 305 303 301 304 305 303 304 306 304 303 299 296 298 300 299 300 300 298 301 305 303 300 299 299 299 298 299 300 302 305 307 300 299 308 309 304 302 303 302 300 301 301 300 300 300 300 300 300 300 300 299
303 303 303 304 304 304 305 305 303 302 304 303 302 303 302 304 302 302 310 315 310 307 307 306 305 304 303 303 301 300 306 307 301 300 300 300 301 304 304 302 302 303 302 302 303 303 301 299 298 300 301 301 302 301 297 297 304 306 300 297 297 298 298 300 301 304 309 309 301 298 307 310 306 304 303 302 301 302 301 300 300 300 301 301 300 300 299 299
303 303 303 304 304 305 307 306 302 302 305 303 302 303 302 303 303 301 309 316 309 305 307 309 306 304 304 302 300 303 310 309 302 301 300 299 300 302 305 304 303 303 299 300 305 304 301 301 301 300 301 303 303 302 298 296 303 306 298 296 298 298 299 300 302 306 306 305 303 300 303 307 308 306 303 301 302 303 302 300 300 301 301 301 301 300 299 299
304 304 304 304 304 304 304 304 302 301 302 301 300 301 301 302 302 304 312 315 308 305 305 308 305 303 303 302 303 307 307 304 306 305 300 299 301 303 305 304 302 302 298 303 310 304 299 302 301 300 303 304 302 301 298 297 302 302 297 297 298 297 300 300 302 305 302 303 308 305 301 307 310 307 302 301 303 304 304 301 301 301 301 301 301 300 299 299
303 304 304 304 303 303 302 302 301 300 299 299 299 301 301 301 302 309 316 312 305 304 303 305 305 304 305 306 307 306 304 303 306 304 300 300 301 302 304 302 302 304 301 305 308 302 298 299 298 299 302 302 300 299 297 297 300 299 297 298 298 297 299 299 302 305 302 305 310 305 300 307 311 308 305 304 304 305 305 302 301 300 301 301 300 300 299 299
303 304 304 304 304 303 302 301 300 299 299 299 301 301 300 303 309 314 314 309 305 305 304 306 306 304 305 311 310 306 305 305 303 302 304 303 302 302 300 299 303 305 304 304 304 300 297 297 297 299 300 299 298 297 295 296 298 298 298 300 301 301 299 299 301 302 305 309 308 301 300 304 309 309 307 306 305 304 304 302 301 301 301 301 301 300 299 298
302 303 303 304 304 303 303 302 299 299 300 300 301 302 303 309 317 316 310 307 307 307 306 306 304 302 304 308 308 304 306 306 302 303 306 303 302 302 301 302 304 307 308 307 305 302 299 300 300 299 298 297 297 298 297 295 296 298 299 301 305 305 303 304 304 303 308 311 305 299 299 301 307 308 307 305 303 302 302 301 301 301 301 301 300 300 299 298
301 302 303 304 304 303 303 302 299 299 299 300 301 306 312 313 314 311 308 308 307 305 305 305 303 302 302 303 304 302 304 305 303 301 302 302 301 299 300 301 300 307 313 308 306 306 303 302 300 299 298 297 299 303 302 299 299 301 301 303 309 310 308 309 309 307 308 308 301 298 300 302 306 307 305 304 303 301 301 300 300 300 300 300 300 299 299 298
301 301 303 304 303 303 302 300 299 299 300 301 304 313 321 317 311 307 306 308 305 300 300 302 302 300 301 304 304 300 301 303 303 302 300 302 303 300 300 299 297 305 311 307 306 309 307 304 301 302 301 298 299 303 305 304 302 303 302 303 309 310 310 312 309 307 309 307 300 297 299 304 307 306 304 303 302 301 299 298 299 299 299 299 298 298 298 298
302 302 302 303 303 302 302 301 300 300 300 304 310 317 320 316 309 305 306 307 301 297 299 300 301 302 303 304 302 299 303 304 302 304 304 303 304 303 302 300 298 300 304 305 305 306 310 311 304 302 301 299 298 298 299 300 301 301 298 301 307 307 308 312 310 308 309 307 302 299 300 306 308 306 303 301 300 298 298 297 297 297 297 297 297 297 297 298
303 303 302 303 302 302 302 301 301 300 301 308 318 320 317 314 308 307 310 306 299 299 299 297 302 307 306 304 300 297 302 305 302 303 304 302 302 301 299 299 298 297 301 307 306 302 308 310 303 299 298 297 298 296 295 297 301 301 298 302 306 303 303 306 304 304 303 303 304 303 303 305 305 303 300 299 299 298 298 298 297 298 298 297 298 298 299 299
303 303 303 303 302 302 301 302 302 301 303 316 326 317 312 310 306 306 308 303 299 301 301 301 305 311 311 307 304 301 299 302 303 304 303 300 299 299 298 297 296 295 299 305 305 303 308 309 301 298 297 295 296 296 294 297 302 303 302 304 301 296 299 303 301 297 298 304 306 304 305 306 305 304 301 299 300 300 300 299 298 299 299 298 299 300 301 300
303 304 303 301 301 301 300 303 303 301 307 323 326 311 303 302 299 299 301 300 298 299 303 308 306 306 312 311 307 305 302 302 304 305 304 302 301 299 297 296 295 295 295 298 301 301 304 308 302 298 299 297 293 294 295 295 298 303 305 302 297 296 298 302 305 303 304 309 308 304 305 306 307 307 304 301 303 303 302 301 299 300 300 300 301 302 301 300
303 303 304 301 301 301 300 304 302 303 313 322 317 306 299 298 295 294 296 298 298 300 305 311 306 301 309 313 308 303 303 307 306 305 305 304 303 300 297 297 296 294 292 295 300 299 299 308 305 297 299 298 293 296 301 298 296 300 302 298 298 303 304 303 306 307 308 311 309 306 305 305 306 307 306 304 304 304 303 302 301 301 301 301 301 301 301 300
303 307 310 303 300 301 301 302 301 307 322 321 312 306 301 299 296 293 295 296 298 302 306 307 304 301 304 307 305 301 301 305 305 303 305 305 304 301 297 297 296 294 292 293 299 298 297 307 309 299 296 298 298 301 304 303 299 298 299 298 298 302 304 303 303 304 307 309 309 309 309 308 307 305 305 306 304 304 304 303 303 302 301 301 301 300 300 299
301 311 313 302 300 302 300 301 305 316 324 314 306 303 299 299 297 293 293 295 297 300 304 304 303 305 306 303 301 300 300 301 301 303 304 302 303 302 297 295 295 295 293 293 297 297 297 304 309 303 298 300 303 302 301 302 300 300 302 302 301 300 299 300 300 298 303 307 306 306 310 312 307 303 304 305 304 304 304 303 303 302 301 301 300 300 299 299
302 314 313 301 300 301 301 306 309 308 308 303 300 300 298 298 297 294 293 293 294 296 298 300 301 303 307 305 301 299 300 301 301 301 303 301 303 303 297 294 294 294 295 297 297 297 298 301 305 306 305 305 303 297 295 297 297 299 302 302 303 302 301 305 305 298 297 302 302 302 308 311 306 301 301 303 301 301 301 300 301 301 300 300 299 299 298 298
308 316 309 301 300 300 306 315 301 294 301 301 297 298 298 298 297 296 293 292 294 295 295 298 299 299 302 304 302 299 300 303 302 302 302 301 301 301 296 292 292 292 295 298 297 295 297 299 303 307 306 303 298 292 291 293 293 295 297 298 300 300 302 308 309 302 298 297 297 298 303 308 304 298 298 299 298 298 297 297 298 299 299 298 298 298 298 298
317 314 304 300 300 301 311 317 302 295 300 296 292 293 295 295 297 296 294 295 296 296 297 299 298 299 300 299 301 302 301 302 303 301 301 300 298 296 293 291 291 293 295 297 296 296 297 299 303 308 305 299 295 292 290 290 292 296 297 295 297 299 300 302 302 301 300 298 298 300 303 308 304 298 297 297 297 297 297 296 297 298 298 298 298 298 298 298
316 311 306 302 299 304 316 318 310 303 297 294 295 295 293 293 295 296 297 298 298 297 300 301 297 298 297 294 299 302 300 303 304 300 298 300 297 293 291 291 291 293 295 297 297 297 299 301 303 307 309 306 303 300 298 296 295 298 298 296 296 297 296 298 297 298 301 301 301 303 307 309 304 299 298 299 298 299 299 299 298 298 298 299 299 298 298 298
308 307 308 304 298 303 311 310 310 308 300 300 302 298 296 296 293 294 296 297 296 295 299 299 295 296 294 292 298 299 295 301 304 300 297 297 296 292 291 291 292 293 295 296 296 297 298 300 302 306 310 311 311 309 307 304 300 299 298 295 295 296 297 300 299 300 303 301 298 302 308 308 305 302 302 302 301 301 301 301 300 299 299 299 298 298 298 298
310 310 312 312 304 302 301 296 300 306 303 305 305 299 299 300 295 292 293 296 295 293 295 296 294 295 295 295 304 306 299 297 298 300 300 298 296 293 290 292 293 294 295 295 294 295 296 297 299 304 307 308 309 308 304 303 302 302 300 296 296 296 297 299 301 302 303 300 299 303 305 306 305 304 304 303 302 302 301 301 301 300 300 300 299 299 298 297
309 311 309 312 310 308 305 299 299 304 304 306 306 301 300 301 297 294 292 293 294 293 294 295 294 298 300 300 306 309 303 298 298 300 301 298 295 292 290 291 293 295 296 295 293 293 297 298 298 301 304 304 304 303 300 299 301 302 301 299 298 296 296 298 301 302 301 301 304 304 301 302 303 303 303 303 303 303 302 301 301 300 299 299 298 297 297 297
304 306 300 300 306 309 309 305 301 302 303 303 302 300 302 303 300 300 296 292 293 293 296 299 297 299 302 302 305 307 304 304 304 303 301 298 295 294 293 292 292 293 295 293 291 293 297 299 297 296 299 300 299 299 298 297 298 299 299 299 298 297 297 298 300 301 300 302 306 304 300 301 303 302 303 303 302 302 301 300 300 299 298 297 297 297 297 297
301 303 296 295 302 305 303 300 300 304 305 304 302 300 303 306 303 301 296 295 297 294 295 303 303 299 299 300 303 307 307 306 308 305 303 301 299 296 297 296 293 292 293 293 292 293 296 299 297 295 297 299 297 297 297 296 297 298 298 298 299 298 297 298 300 300 299 301 303 302 301 301 301 301 301 301 301 300 299 299 298 298 298 298 297 297 297 298
304 305 300 300 302 299 297 297 300 306 305 303 305 302 300 305 304 299 296 299 304 299 295 303 305 299 298 298 301 307 307 306 307 305 302 302 301 299 299 300 296 292 292 293 292 292 294 298 297 295 298 302 299 296 296 296 297 298 298 298 298 298 298 297 298 298 298 299 299 299 299 299 299 300 300 300 300 299 299 299 299 299 299 298 298 298 298 298
301 300 300 307 308 300 299 300 299 305 306 304 307 304 300 304 303 300 298 298 302 302 299 304 305 299 296 297 299 304 306 304 305 303 301 302 302 300 299 299 297 295 294 293 293 293 294 296 296 295 301 304 300 297 297 297 297 299 302 301 298 297 298 297 297 297 298 299 299 298 299 300 301 302 301 300 300 299 299 300 300 300 300 299 299 299 299 299
299 297 297 309 312 300 299 301 299 304 309 308 308 304 303 304 301 300 302 300 297 299 299 301 304 301 298 299 301 303 304 302 300 298 297 298 298 296 296 296 297 297 296 293 293 293 294 296 297 296 301 304 301 299 298 299 305 309 308 304 300 298 297 297 297 297 297 298 300 300 301 303 304 304 302 301 301 301 301 301 301 301 301 300 300 299 299 299
Wind_Speed
15 15 14 13 12 11 11 10 9 8 8 8 7 6 6 7 8 8 8 9 9 9 8 9 9 8 7 5 5 9 20 32 44 55 41 29 35 29 23 17 17 17 8 6 5 3 9 14 12 13 13 11 8 4 4 7 6 2 3 6 5 4 4 3 3 3 2 4 4 3 2 2 4 2 1 3 1 2 1 3 3 1 1 2 4 7 10 13
14 14 13 13 12 12 11 10 10 9 8 8 7 7 7 8 8 10 12 13 14 14 12 9 8 11 9 7 6 3 11 24 41 45 34 34 36 28 22 16 15 16 10 7 7 6 8 8 8 12 11 6 6 5 4 6 7 5 4 6 5 4 4 3 4 3 2 3 3 2 1 2 4 3 2 1 3 5 3 5 4 4 4 4 6 9 11 12
13 13 13 13 12 12 11 11 10 9 9 9 9 8 8 9 10 12 15 17 19 19 19 14 5 9 10 9 7 3 5 21 36 29 33 38 35 28 22 15 12 14 15 16 17 16 15 8 8 13 10 8 6 6 7 5 5 5 4 7 6 6 7 3 3 3 2 2 1 3 0 1 3 3 3 3 3 6 8 7 7 9 10 10 10 11 12 12
14 13 13 13 12 12 12 11 11 11 12 12 11 10 10 11 12 13 14 15 17 19 23 25 16 2 4 8 6 4 6 11 18 20 33 37 33 28 21 14 10 11 15 18 20 21 20 14 12 13 10 9 7 7 10 8 4 4 5 8 8 5 7 4 2 3 2 1 2 2 1 1 4 3 4 5 3 5 8 7 7 9 11 11 12 12 12 12
14 13 13 13 13 12 12 12 13 14 15 15 14 14 14 14 13 12 10 8 9 12 16 28 32 22 13 4 4 4 5 4 10 25 33 32 31 27 19 15 10 9 12 14 14 13 13 10 8 10 9 7 6 7 9 8 4 6 7 9 8 3 6 4 1 1 1 1 1 2 1 2 2 1 4 7 5 5 6 7 7 7 9 10 11 12 12 13
14 14 14 14 13 12 12 13 14 16 17 16 16 16 15 14 13 13 12 9 6 5 7 14 23 29 31 25 20 16 6 4 12 28 29 29 29 23 19 16 12 13 16 17 15 12 10 8 8 8 7 8 10 9 6 4 2 6 7 6 5 3 5 3 1 1 1 2 2 2 3 2 1 3 3 5 5 5 5 5 6 7 8 9 9 10 11 13
15 14 14 14 13 13 13 13 15 15 16 15 15 16 14 13 14 15 17 19 13 5 4 5 6 13 21 28 37 32 15 4 16 26 24 27 27 21 18 16 15 16 20 22 18 14 11 14 15 9 8 10 10 11 12 11 9 10 10 6 5 5 5 2 1 1 2 2 4 2 0 1 1 3 0 3 5 4 4 4 6 7 7 7 7 9 11 12
15 15 15 14 13 12 12 13 13 14 14 13 14 13 12 11 11 12 16 24 24 14 4 5 2 2 4 11 20 19 10 7 21 24 20 23 27 23 18 17 18 18 21 21 12 7 7 12 12 4 8 10 6 9 9 12 13 12 10 7 5 5 5 2 1 2 1 3 2 2 3 1 1 0 0 5 5 5 6 5 6 6 7 5 7 10 11 11
16 16 16 15 14 13 12 12 11 12 11 11 11 10 10 10 10 11 12 18 24 24 16 5 2 4 5 5 7 10 8 13 20 20 17 20 25 26 25 24 22 24 27 26 16 8 3 5 6 4 11 8 4 5 0 3 7 8 10 8 7 5 5 3 3 4 2 3 3 1 5 2 1 1 1 4 7 7 7 6 5 6 6 6 7 9 10 10
16 16 16 15 14 12 11 9 9 9 9 9 9 9 10 10 12 12 12 14 14 18 24 22 19 20 18 12 10 11 8 15 20 17 14 17 21 27 33 31 26 27 26 27 26 17 8 9 11 10 12 7 5 6 5 5 6 8 11 11 9 8 7 5 5 4 1 3 6 2 4 3 2 2 1 3 8 8 6 4 3 5 7 7 8 9 9 9
16 16 15 14 12 10 9 8 9 9 8 8 9 10 12 11 11 11 12 14 12 8 10 17 25 33 39 29 15 9 9 16 21 17 11 14 20 25 30 31 31 31 25 21 20 15 11 12 11 7 5 5 7 10 10 7 9 10 9 10 7 5 8 9 7 6 2 2 7 4 3 3 2 1 5 6 9 7 6 5 4 5 7 8 9 9 9 8
16 15 14 13 12 11 11 10 9 8 7 7 8 10 12 14 13 12 13 14 17 16 9 6 9 20 37 30 11 5 11 18 20 17 13 12 18 22 23 26 28 30 28 21 16 14 10 5 5 6 3 3 6 8 7 3 6 6 3 4 4 3 9 11 7 6 3 1 5 3 3 3 4 4 6 7 8 6 5 4 5 6 7 7 8 8 8 9
15 14 14 15 16 16 17 15 14 12 8 5 5 8 10 13 15 15 14 11 13 20 20 16 12 18 26 15 6 9 13 19 22 19 16 12 13 16 19 22 23 25 26 24 20 19 18 16 19 14 5 3 4 4 7 3 2 3 1 1 2 2 7 10 8 8 3 2 3 3 2 3 5 5 5 6 7 6 4 4 6 6 6 7 7 6 8 9
13 13 13 16 19 20 21 21 21 20 17 11 4 4 7 10 12 15 16 12 9 12 17 17 14 22 23 5 3 14 15 19 24 23 20 16 10 10 14 18 21 21 21 22 21 19 18 22 26 15 4 6 4 5 7 4 0 1 0 1 1 1 4 7 8 11 4 2 3 4 1 3 4 4 6 6 6 6 5 5 6 6 7 7 6 7 7 8
12 11 12 14 16 17 17 17 18 19 22 22 14 5 2 5 7 9 12 15 13 9 12 15 11 13 13 5 4 15 19 21 26 26 21 19 15 10 8 12 17 19 18 17 16 17 17 17 17 9 3 3 2 4 5 3 2 2 1 1 4 2 2 4 4 10 8 2 5 5 1 3 3 4 6 5 5 5 5 6 6 7 8 7 7 7 7 8
11 9 8 9 9 9 10 11 12 12 14 20 25 20 8 2 1 4 6 12 16 13 12 15 14 12 8 3 5 12 18 20 24 25 19 17 18 14 9 7 8 12 15 17 13 12 18 17 9 4 3 0 0 2 2 3 4 4 4 3 3 3 2 1 2 8 11 6 3 4 2 2 2 4 5 4 5 5 5 6 6 7 8 7 7 6 6 7
11 8 5 3 4 5 8 12 11 10 7 10 19 27 28 16 4 1 1 3 10 15 19 18 12 13 8 5 5 7 12 17 21 24 20 14 15 17 14 7 5 6 7 14 16 11 12 10 2 2 5 4 2 0 1 3 4 4 4 2 1 3 3 3 2 6 13 8 4 6 2 3 3 4 4 3 5 6 5 6 7 7 7 6 6 6 6 7
11 8 5 2 3 6 9 10 11 8 5 5 8 15 26 28 22 16 10 6 4 7 15 21 13 8 6 7 6 9 14 16 19 24 22 13 11 16 17 10 6 6 1 5 14 11 6 4 1 3 5 7 6 3 3 4 3 2 3 1 1 1 1 3 3 6 13 8 5 6 2 3 4 3 3 3 4 6 5 5 6 6 6 6 6 6 7 7
10 8 6 4 4 6 8 9 11 6 3 5 5 4 5 13 24 33 34 26 12 5 6 12 10 4 3 6 10 14 12 11 17 24 26 17 10 11 16 13 6 5 3 2 8 9 4 3 3 4 6 9 8 7 6 5 2 2 2 1 1 2 1 2 3 4 8 6 4 6 3 3 5 4 4 4 4 4 4 4 3 3 4 4 5 6 6 7
9 8 7 7 6 6 7 10 12 5 6 7 4 1 1 2 8 15 24 24 11 6 6 3 4 4 3 4 11 15 7 5 13 25 31 20 9 7 12 11 3 6 6 2 5 5 2 6 7 5 6 7 6 5 5 4 2 3 2 0 1 2 1 1 1 2 5 4 2 4 5 4 4 4 4 5 5 3 3 4 3 3 4 4 5 7 7 7
11 9 8 9 9 8 7 10 14 8 5 4 3 3 2 1 4 3 4 10 8 8 8 4 3 4 2 3 12 15 4 2 11 26 34 21 7 6 9 9 4 7 6 2 1 2 2 8 7 4 3 4 4 2 2 2 2 2 1 0 1 1 1 1 1 3 5 3 1 5 6 4 2 3 3 5 4 3 4 5 4 5 5 4 5 7 8 7
12 11 9 9 9 10 8 8 14 15 11 11 14 12 6 6 12 11 5 5 6 8 7 4 4 3 2 3 13 13 3 3 11 23 32 21 10 6 4 7 9 7 5 2 2 1 6 9 5 3 1 0 3 2 0 2 2 2 2 1 0 2 3 3 1 3 5 2 2 6 5 4 2 3 3 3 3 3 3 4 5 5 6 5 5 7 8 8
12 12 10 9 9 10 9 8 10 14 18 21 21 16 12 14 15 11 5 6 3 4 4 4 3 4 4 5 14 13 4 6 6 14 26 18 8 4 2 7 10 7 8 7 4 6 7 6 5 2 2 2 3 4 1 2 2 3 3 1 0 2 3 1 2 4 6 2 4 6 4 4 3 3 4 2 3 4 3 4 5 5 5 6 6 6 6 7
12 12 11 10 8 8 8 8 7 12 19 23 22 18 15 13 11 7 4 3 2 2 2 2 2 4 4 4 13 10 4 6 2 9 21 14 3 1 2 4 5 7 8 9 11 13 7 4 3 0 3 2 1 5 4 0 1 2 2 2 1 2 4 3 2 6 4 2 3 5 4 4 4 4 4 3 3 4 3 4 4 4 4 5 6 5 4 5
12 11 11 11 9 6 5 7 8 13 17 17 17 15 12 8 5 4 3 1 2 1 1 1 1 5 4 6 14 6 3 3 2 6 13 11 4 2 2 1 2 4 2 3 8 11 7 3 1 1 1 1 1 4 5 3 1 2 1 1 2 3 4 5 5 5 3 3 2 4 3 2 4 5 5 2 3 4 1 2 3 2 3 4 4 4 4 5
13 12 11 11 10 6 2 4 7 9 9 10 11 9 7 6 4 3 2 2 3 2 3 2 1 6 6 8 12 3 2 2 2 7 11 11 6 1 2 1 1 3 1 0 4 5 3 1 1 2 2 1 1 2 2 3 3 0 1 1 2 4 4 3 3 3 2 1 2 3 4 2 3 6 5 3 4 5 2 3 3 3 4 4 5 5 6 6
14 13 12 11 10 7 2 3 5 5 3 5 7 7 5 4 4 3 1 1 3 2 4 4 2 7 7 8 10 1 1 4 2 7 13 12 8 1 1 3 1 3 1 1 2 3 2 2 4 4 1 2 2 2 2 3 4 1 2 2 4 3 3 1 1 1 2 3 2 1 2 3 2 3 4 1 5 6 4 3 2 2 4 5 6 6 7 7
16 14 14 12 11 9 6 5 5 4 5 7 6 5 5 3 1 2 1 2 2 1 2 2 2 5 5 8 11 4 1 5 2 7 12 13 10 2 3 5 2 3 1 2 2 3 2 4 6 5 3 4 3 3 3 3 3 2 2 2 2 0 1 0 1 0 1 2 2 2 3 4 2 2 3 1 4 5 4 2 2 2 4 6 7 7 8 8
18 17 16 12 10 11 8 6 6 8 8 8 6 4 3 1 0 0 2 2 1 1 1 2 2 4 6 5 7 5 2 3 2 7 11 9 11 6 5 4 2 5 3 2 4 3 1 3 3 4 5 5 4 4 3 2 2 2 2 1 2 2 1 0 2 0 0 3 1 3 5 4 2 1 3 2 3 4 4 3 3 2 4 5 6 7 7 7
16 19 20 14 9 8 6 7 9 10 8 6 5 3 2 1 0 1 2 1 1 1 0 3 3 4 6 3 3 5 5 4 2 6 5 4 9 9 4 1 1 4 4 7 8 3 1 0 2 1 3 4 5 3 1 1 1 1 2 2 2 2 1 1 1 1 2 2 2 3 5 4 3 1 2 1 0 2 4 4 4 4 4 5 5 6 7 7
14 16 20 17 12 8 4 6 7 7 6 4 3 2 2 1 1 3 2 0 1 1 1 3 2 3 5 3 3 5 4 4 4 6 5 3 8 8 2 1 1 1 2 5 6 2 2 1 1 0 1 3 4 2 2 2 2 2 2 2 2 2 2 2 1 1 3 1 3 2 3 2 3 0 2 1 1 2 4 5 5 5 5 5 5 6 7 7
13 13 17 19 15 10 5 6 6 5 3 2 2 2 1 0 2 2 1 2 1 1 1 2 1 2 3 1 3 5 4 3 4 5 4 3 5 6 5 5 3 1 3 3 2 1 2 1 2 1 2 2 4 2 2 3 3 2 1 2 2 1 0 1 0 1 3 2 3 2 3 2 5 2 1 2 3 4 5 5 6 6 7 7 6 7 7 7
12 11 14 17 15 11 8 6 5 4 3 2 2 1 2 2 2 1 1 2 1 2 1 1 2 2 2 1 3 4 2 2 4 4 1 1 2 4 6 8 5 2 3 3 3 2 1 2 2 1 1 3 6 3 1 1 3 5 3 3 3 2 3 3 2 2 3 1 3 2 2 3 4 2 2 2 1 1 3 5 6 7 8 9 8 8 8 8
11 8 10 16 15 10 7 4 3 4 3 2 1 1 3 3 1 1 1 2 1 2 1 1 2 1 2 2 2 3 0 2 4 4 3 2 3 4 5 9 9 4 1 1 2 3 2 1 3 4 2 5 6 4 3 3 4 3 1 3 3 3 3 3 2 3 4 4 1 1 1 3 2 2 1 1 2 2 4 4 4 6 7 7 8 8 8 8
9 7 8 15 16 11 6 2 3 4 3 2 2 2 3 1 2 2 1 1 1 1 0 1 1 0 2 3 1 1 0 2 3 3 5 4 3 4 4 6 9 6 2 1 2 2 1 0 3 3 2 4 4 2 2 3 2 0 1 2 2 3 2 2 1 2 2 4 3 1 2 3 1 1 1 2 3 4 4 4 4 7 6 4 6 8 7 7
8 5 7 14 16 11 6 2 3 4 3 2 3 3 1 1 2 1 1 1 1 2 2 1 1 1 1 1 2 2 1 1 2 2 4 4 1 2 2 2 5 5 3 2 2 2 2 0 2 1 1 1 3 2 2 2 2 1 1 2 3 2 2 0 1 1 1 2 2 1 3 3 2 0 1 1 3 4 4 4 5 7 6 5 7 7 6 5
6 3 4 13 16 10 6 2 4 4 2 3 4 2 1 0 1 0 1 1 0 1 1 1 1 2 1 0 2 3 2 0 2 2 2 1 1 2 2 1 1 3 3 1 1 1 2 1 2 0 1 1 1 2 1 2 3 2 2 3 2 0 0 0 1 1 1 3 2 1 4 5 3 1 1 1 2 3 3 4 5 6 6 6 6 6 6 6
5 1 2 11 16 10 5 3 5 4 2 4 4 2 1 0 1 1 1 1 1 1 1 1 1 1 1 1 1 3 4 2 2 3 1 1 1 1 2 1 1 1 2 3 1 1 2 2 2 1 1 2 1 2 1 2 3 4 4 3 1 1 0 0 1 2 2 4 4 2 3 4 3 2 1 2 3 1 1 2 3 4 5 5 6 6 6 7
4 1 1 10 16 10 5 3 4 3 3 3 3 2 1 1 1 1 0 1 1 1 1 1 0 1 1 1 1 1 3 2 2 1 1 1 1 1 2 1 0 1 1 2 1 1 1 2 1 2 1 2 0 1 1 2 4 3 2 2 1 1 2 2 1 1 2 3 4 4 3 2 3 2 1 3 4 3 2 2 3 4 5 5 5 5 6 7
3 1 1 8 15 8 5 6 4 4 4 3 1 1 1 1 1 1 1 1 1 0 1 2 2 1 2 1 1 0 1 2 1 1 1 1 0 1 1 1 1 1 2 1 0 0 1 1 2 0 2 1 0 2 2 2 1 0 0 1 1 1 0 1 0 0 2 3 2 3 5 4 0 2 3 3 3 2 1 2 4 4 5 5 5 5 6 7
2 2 1 9 16 6 3 8 6 3 3 2 2 2 1 1 2 1 1 2 1 1 0 1 2 2 2 1 0 1 1 1 1 0 0 1 1 0 1 1 0 1 1 1 1 0 1 1 2 2 1 1 2 3 2 2 1 2 1 1 1 1 1 1 1 1 1 2 1 1 6 7 2 1 3 1 1 1 2 3 4 6 7 7 6 7 6 7
1 2 1 10 17 5 3 6 3 2 2 2 1 1 1 1 2 1 0 1 1 1 1 2 2 2 2 1 1 1 2 1 1 1 1 1 1 0 1 1 0 1 1 1 1 1 1 0 2 4 2 2 4 3 1 1 1 1 1 1 0 0 1 2 2 0 1 1 0 1 4 5 1 1 3 3 3 4 3 3 6 7 8 8 8 9 8 8
1 1 1 12 15 2 4 4 1 2 3 0 2 1 1 1 2 1 0 1 0 1 1 1 1 1 0 1 2 2 2 1 2 1 0 1 0 1 2 2 0 1 1 0 0 1 1 0 2 4 1 4 4 3 1 1 1 2 2 2 2 1 1 1 2 1 1 2 2 1 4 5 0 2 2 3 3 5 4 4 6 7 8 9 10 10 10 9
1 1 1 12 12 1 3 2 2 2 1 1 1 1 1 1 1 1 1 1 0 1 2 2 0 1 1 1 2 2 1 1 2 1 0 2 1 2 3 1 1 1 0 1 1 1 1 0 1 4 2 1 1 1 1 1 1 3 2 2 3 3 5 3 2 1 2 4 4 3 5 4 1 2 2 2 2 5 6 5 5 6 9 9 10 10 9 9
1 0 2 8 12 6 2 1 3 4 3 3 2 2 1 1 1 1 1 0 1 1 1 2 0 2 3 2 2 2 1 1 1 1 0 2 1 1 2 1 1 1 1 1 1 1 1 1 1 3 4 3 4 3 2 2 0 2 2 3 4 6 7 3 1 2 3 2 5 5 6 4 3 3 5 4 3 8 11 9 5 6 9 9 9 9 9 9
0 1 1 4 8 8 3 1 2 5 4 4 3 2 1 2 1 0 0 1 1 0 1 2 1 2 2 1 2 2 2 2 1 1 2 2 2 1 1 1 0 1 3 1 1 0 0 1 3 4 4 6 7 4 1 1 4 4 4 6 7 7 7 4 1 3 3 2 5 10 9 11 14 11 8 8 7 8 11 11 9 8 8 8 8 9 9 9
1 1 1 1 2 3 2 2 3 3 3 2 2 3 3 2 1 1 1 0 1 1 1 2 1 2 2 3 2 1 1 2 2 0 1 1 2 2 0 1 0 1 3 1 1 0 1 2 3 4 8 9 8 6 1 2 9 11 7 6 9 9 8 7 7 5 4 2 6 7 6 10 15 15 13 14 13 10 10 12 11 10 10 9 8 9 11 11
1 1 0 1 1 1 2 1 2 3 3 2 1 2 4 3 2 2 2 0 0 1 1 1 2 4 3 3 3 3 1 1 1 1 1 1 2 3 1 1 1 1 1 1 1 0 1 3 1 3 8 11 10 10 7 6 10 12 10 9 9 11 12 13 14 9 7 8 10 4 3 10 15 16 18 17 14 12 13 14 12 10 11 10 9 10 11 10
2 2 1 1 1 1 1 1 1 3 4 3 2 2 4 5 5 2 1 2 0 2 2 2 4 5 4 2 2 3 3 2 1 2 3 2 2 3 2 2 1 1 1 3 1 1 2 2 0 1 7 11 10 9 8 8 10 10 11 12 12 12 15 16 16 12 11 16 18 14 15 18 17 18 19 16 14 12 12 13 12 11 10 9 9 9 10 10
1 2 1 1 2 2 1 1 1 1 2 1 1 2 3 5 6 3 2 3 2 2 4 4 3 4 4 3 2 2 4 4 1 2 5 4 2 3 3 2 3 2 2 2 1 1 2 1 1 0 6 6 2 2 4 8 10 11 12 11 11 12 13 15 15 12 12 15 18 17 16 16 16 17 14 12 11 10 10 11 11 10 9 8 9 10 10 10
3 3 3 3 2 0 0 1 0 0 1 1 1 3 3 5 6 4 2 2 2 4 6 6 5 5 3 3 5 4 4 4 2 2 5 4 1 2 2 1 4 6 4 3 2 1 2 1 1 1 5 3 3 2 5 8 10 11 13 11 11 12 9 10 11 10 11 12 10 7 8 11 11 8 7 9 8 8 11 12 10 10 9 8 9 10 11 11
4 3 2 2 2 0 0 1 0 0 1 1 1 3 2 2 4 4 2 1 1 1 2 4 6 5 2 4 7 5 3 4 3 3 2 2 3 3 2 2 3 3 5 5 2 1 2 2 1 1 4 3 1 4 8 10 7 5 4 4 10 11 8 7 7 10 14 11 6 5 7 9 6 4 6 10 9 8 10 9 7 9 10 10 10 11 12 12
Wind_Direction
78 76 74 73 72 71 72 69 71 71 74 80 80 71 51 45 36 31 33 28 18 358 328 298 278 269 285 303 353 37 29 29 37 38 36 7 355 358 355 359 8 15 9 348 21 68 49 47 42 49 56 44 21 352 26 22 2 359 56 77 87 75 77 61 65 78 101 114 100 71 354 14 79 55 49 214 261 37 78 57 43 159 112 3 341 324 321 326
73 72 69 68 68 69 71 67 67 66 68 71 67 71 67 58 46 54 59 49 43 30 12 338 285 256 266 272 273 27 21 21 34 32 17 2 3 7 5 11 22 29 36 51 70 85 73 50 37 56 59 48 12 6 39 12 10 42 68 83 80 79 87 66 73 86 94 95 100 97 343 4 46 7 342 332 37 29 32 42 21 18 17 3 352 336 332 332
69 68 66 65 66 66 68 65 65 64 66 69 71 79 73 63 62 71 68 57 52 43 35 24 339 248 248 247 251 253 312 23 36 17 356 2 6 9 11 17 31 48 61 74 85 91 92 83 63 69 70 62 28 26 50 15 3 31 52 85 88 100 101 85 72 71 45 56 88 89 155 22 41 336 330 337 9 29 29 25 3 3 360 352 351 343 335 334
65 63 63 63 65 66 67 66 66 67 69 71 73 75 74 75 77 72 63 58 55 50 46 43 48 76 217 223 237 242 264 34 40 349 350 1 4 8 15 22 36 67 79 83 87 91 91 81 68 68 74 68 41 46 47 17 20 40 38 89 114 129 105 91 59 57 12 336 8 48 186 68 33 333 346 335 336 37 29 19 352 347 344 342 345 342 338 342
61 60 61 63 65 66 68 70 72 73 73 73 74 79 83 81 72 56 43 40 43 51 56 56 61 68 76 103 217 230 257 46 12 342 352 1 4 10 19 29 46 78 91 93 86 84 82 71 69 61 60 58 39 55 48 23 55 72 49 81 113 131 102 107 341 40 339 299 342 15 38 25 7 14 11 348 7 31 11 1 341 331 334 334 333 331 337 350
58 59 61 64 66 68 72 77 78 77 72 71 74 80 84 77 64 52 39 25 12 45 77 72 67 67 70 72 78 77 74 85 340 338 354 5 8 14 25 38 62 83 91 89 77 73 69 60 71 63 65 66 52 60 63 35 80 100 77 76 86 63 90 105 306 71 274 320 17 14 23 328 309 82 22 345 18 12 347 341 322 317 321 318 315 321 339 350
55 57 62 65 67 72 77 82 81 75 69 68 77 83 82 75 66 59 49 41 32 45 127 134 88 68 69 67 68 68 73 73 337 341 360 12 16 22 31 45 63 81 83 72 63 66 62 66 76 75 82 79 65 72 76 69 75 96 102 96 75 60 73 55 340 91 258 18 23 319 97 282 36 85 347 9 23 350 333 313 297 304 301 295 311 333 345 345
52 57 64 68 72 77 81 85 77 66 64 71 83 86 80 72 69 67 58 49 43 44 103 166 138 32 53 60 65 65 63 5 341 349 7 18 28 32 40 51 57 69 67 55 49 67 57 67 77 71 77 74 78 93 89 72 67 82 106 114 95 73 67 56 45 86 110 55 10 231 125 100 40 305 318 30 8 333 320 293 279 292 293 299 331 344 346 342
51 55 63 70 74 78 82 79 65 57 65 79 83 82 75 68 71 72 62 52 47 52 63 82 72 62 85 86 79 69 30 347 346 358 13 25 35 41 49 50 55 66 62 53 53 60 35 63 68 72 92 91 85 91 150 63 64 87 112 113 102 88 64 54 81 74 60 37 343 165 113 104 139 247 125 45 357 338 309 283 270 289 316 338 343 345 344 341
49 53 60 68 72 76 76 64 54 62 71 81 80 74 73 69 67 66 56 46 43 60 68 70 74 79 82 73 68 67 360 346 4 9 15 30 36 45 50 49 54 63 61 55 53 50 48 84 96 103 101 92 62 43 16 78 107 116 119 110 93 89 64 46 72 55 11 39 359 23 118 110 174 243 48 25 350 344 309 299 294 306 342 351 345 345 344 343
49 54 61 69 74 73 67 59 62 70 71 76 79 75 72 69 64 52 43 36 28 52 76 69 68 69 68 64 66 64 354 358 15 15 20 30 34 41 46 47 51 59 63 56 49 51 63 81 107 124 101 81 75 63 52 80 118 122 127 112 95 99 66 40 46 29 328 77 6 348 150 133 161 302 9 347 336 336 310 329 344 344 353 348 347 344 344 348
51 57 66 73 77 76 70 66 63 61 66 75 80 80 74 69 63 47 45 51 53 60 70 69 63 64 63 60 62 42 5 11 17 23 31 28 34 40 46 49 51 58 65 63 52 58 66 66 104 83 47 139 108 81 88 88 111 129 166 110 118 142 65 33 21 8 330 86 13 327 200 106 67 19 360 340 332 320 300 337 358 358 353 344 348 342 345 350
53 61 75 83 84 82 76 69 64 62 61 71 83 81 76 69 62 51 48 60 67 64 66 72 76 74 69 61 45 30 12 15 19 30 39 36 42 43 49 53 53 57 63 67 63 63 69 72 84 81 40 106 104 97 126 126 118 145 269 57 153 159 59 31 9 352 332 136 9 304 216 60 52 26 7 354 338 324 321 1 1 355 348 342 344 338 343 348
57 69 89 96 91 85 78 71 66 62 58 56 61 79 77 70 63 55 51 54 65 61 61 65 70 71 71 90 43 26 14 20 22 27 33 37 50 51 54 54 54 58 59 63 62 60 71 73 78 87 44 50 93 139 127 117 157 126 290 325 5 62 60 47 19 2 14 140 332 305 255 62 58 29 17 3 343 333 344 358 353 350 344 341 340 340 343 345
59 78 101 103 94 85 76 64 55 55 57 55 51 53 75 71 67 60 53 52 53 56 61 61 66 75 75 94 40 13 13 22 19 18 21 28 38 35 36 43 46 53 56 59 60 56 65 70 66 71 56 33 126 144 129 124 91 18 309 59 22 21 68 71 46 20 16 312 308 306 292 88 70 26 17 4 350 332 336 350 349 346 341 340 341 343 341 341
61 78 104 105 88 73 49 28 22 36 53 57 56 56 49 22 7 44 63 60 53 57 66 60 65 85 92 53 0 1 11 12 8 12 17 25 31 22 11 23 33 47 54 49 52 49 50 62 70 64 70 52 306 91 141 118 78 28 24 60 17 358 23 41 108 35 2 321 318 340 1 91 39 17 18 9 360 336 331 345 343 342 339 340 340 338 336 337
60 68 90 98 54 18 360 358 357 17 51 69 64 61 58 55 26 303 166 93 53 54 55 44 55 89 76 9 353 352 352 352 0 13 16 21 29 25 24 30 7 20 52 41 39 32 25 41 95 110 53 31 15 286 181 59 44 28 26 70 54 358 350 349 69 24 356 347 14 4 30 69 8 1 9 16 3 338 330 339 337 337 335 337 336 332 336 334
53 59 65 49 354 343 347 353 349 5 69 102 91 76 63 57 61 65 63 73 36 27 42 26 28 93 55 7 357 325 320 340 2 12 13 15 23 25 28 31 351 342 21 36 28 19 7 25 68 100 42 21 28 27 73 57 14 13 5 28 83 5 6 2 8 9 354 350 10 11 50 42 4 360 6 17 1 334 326 333 325 324 328 333 333 330 336 334
47 48 48 24 359 347 348 355 354 356 161 158 144 126 54 47 59 57 50 58 56 19 45 7 4 96 41 346 331 323 317 344 9 12 11 10 9 19 23 23 9 7 43 40 20 11 2 48 47 48 28 17 19 22 58 76 51 80 24 4 5 323 74 4 344 15 352 335 8 13 350 330 335 348 355 351 346 326 320 331 315 318 330 331 334 331 332 334
44 43 42 30 17 0 356 6 10 31 167 184 198 171 23 16 49 42 37 51 58 39 75 6 358 80 51 331 329 341 338 351 19 15 9 4 352 11 11 1 7 49 42 11 16 3 1 64 55 30 15 8 8 19 60 82 87 105 116 85 309 296 71 58 313 17 339 313 47 7 318 292 308 329 339 334 328 320 338 347 341 344 342 335 335 329 331 337
38 37 36 33 29 20 19 21 24 49 141 174 165 88 72 22 70 115 22 50 55 42 67 55 34 63 21 329 345 355 338 339 22 12 9 7 353 7 357 347 26 47 29 325 319 300 36 63 49 15 8 5 19 40 88 89 87 100 113 154 261 297 346 325 298 345 335 303 75 7 316 267 288 310 314 321 311 330 354 339 332 337 330 331 330 326 331 333
32 31 30 31 33 33 36 40 43 65 100 111 104 92 91 108 106 124 135 92 55 30 60 59 56 55 349 6 3 356 313 6 13 6 7 10 17 26 346 16 56 46 9 302 243 45 60 58 29 359 35 76 60 73 103 83 63 48 76 206 233 357 310 277 233 349 342 314 353 353 308 254 259 280 282 301 296 315 332 304 303 310 311 325 330 327 327 324
28 28 26 25 31 36 45 59 65 80 94 98 97 96 104 110 118 125 105 103 82 14 34 32 43 24 4 32 8 356 24 33 357 354 1 3 23 40 1 43 61 53 30 28 49 68 59 43 18 6 212 224 49 47 64 141 79 39 36 287 317 5 317 239 118 352 346 357 333 323 278 247 236 234 242 248 267 282 290 282 272 264 280 306 311 304 302 313
27 24 24 22 25 31 47 68 91 96 92 94 95 101 116 114 119 125 92 98 94 43 38 36 76 34 23 12 357 355 64 48 329 339 357 7 32 325 24 56 60 58 46 38 65 80 69 22 9 175 208 241 356 38 33 304 106 85 15 331 330 339 307 276 319 326 311 169 325 310 254 224 206 210 222 199 231 252 264 288 264 237 252 272 284 285 280 298
27 25 24 21 19 27 56 71 92 100 92 93 96 102 112 107 111 115 100 88 52 32 33 82 109 33 17 350 357 360 145 66 46 340 353 15 12 276 107 87 7 55 55 20 68 80 63 17 297 197 91 4 330 38 24 318 279 151 220 277 293 311 287 275 300 309 260 173 25 337 287 195 169 206 227 197 244 248 229 299 289 311 297 283 305 326 328 317
28 26 25 23 19 22 64 80 94 107 93 86 99 109 104 93 92 84 109 97 47 348 349 16 14 9 359 348 353 336 167 45 32 9 9 15 2 225 124 12 25 75 148 100 77 83 57 29 28 51 72 52 42 69 55 312 310 189 134 207 269 292 269 273 309 295 291 320 7 344 322 328 175 205 209 199 266 261 252 278 284 331 330 329 337 341 342 334
27 25 24 25 24 25 70 136 126 118 96 107 118 116 113 114 90 53 352 74 47 350 352 356 330 358 353 349 349 314 106 333 302 28 17 7 358 263 59 28 63 62 78 167 87 68 22 359 29 31 53 53 38 30 27 329 310 7 81 269 267 276 246 246 330 297 357 316 271 10 340 288 250 191 173 217 282 266 258 262 254 330 339 342 339 334 336 333
28 25 23 24 28 42 75 126 130 110 112 138 137 121 131 142 80 359 351 91 28 333 13 349 333 360 346 353 10 54 76 319 328 16 360 7 13 3 74 53 65 69 59 230 99 74 1 6 17 360 359 29 16 335 329 299 313 38 63 297 277 6 123 144 290 159 49 286 232 54 344 279 275 132 151 237 281 274 284 292 273 322 341 336 331 327 330 332
28 27 26 24 30 45 71 105 110 115 124 132 130 129 151 134 296 327 71 113 322 358 111 326 337 359 341 343 20 47 12 354 42 346 342 18 24 28 80 60 89 97 64 28 78 101 47 24 351 338 9 4 327 323 308 270 336 45 115 120 125 121 106 142 297 76 133 267 213 27 346 321 309 161 169 212 265 283 308 312 278 290 314 313 317 320 326 332
20 26 26 24 30 39 66 91 98 118 123 123 123 115 132 105 140 91 60 109 331 8 236 347 344 330 339 347 30 26 18 24 8 331 342 36 19 31 85 254 263 99 73 61 69 90 108 100 254 356 22 317 298 311 287 241 339 121 186 216 176 176 154 177 300 358 243 250 123 60 9 350 316 182 169 216 250 297 302 295 271 252 274 304 321 327 331 333
8 18 21 23 30 28 53 92 102 125 120 113 115 73 93 86 53 103 87 65 57 321 313 31 359 338 5 33 31 10 16 17 347 354 18 24 9 20 40 306 316 106 95 74 69 96 144 137 236 38 45 300 285 235 185 197 209 205 218 243 216 192 193 197 181 170 263 301 104 83 12 321 263 225 140 208 185 237 268 280 283 269 276 308 326 331 334 330
4 11 14 19 28 31 59 112 123 132 125 119 119 61 111 97 28 92 345 332 42 346 26 41 344 14 13 26 35 359 344 9 10 23 25 10 22 31 42 30 330 279 54 37 28 111 139 88 343 269 161 342 317 262 171 180 223 290 274 271 281 256 225 252 196 210 272 350 105 100 1 275 245 260 141 189 218 238 253 265 279 285 285 295 310 323 329 326
5 8 11 17 26 35 63 108 130 138 138 130 122 51 79 92 67 108 272 317 24 357 16 19 351 14 329 320 37 359 327 354 355 24 38 299 31 66 72 47 2 310 26 10 343 347 129 130 350 331 134 360 348 355 17 321 343 355 351 324 337 11 5 340 334 296 288 356 113 121 342 280 259 265 167 177 210 272 282 273 276 285 286 291 301 308 310 310
7 10 11 18 25 32 52 92 123 136 143 125 109 37 60 76 95 127 236 260 323 343 355 344 327 2 25 48 23 327 329 70 352 354 354 342 25 33 42 34 19 354 323 30 26 356 6 79 13 17 359 345 8 23 350 314 333 357 318 311 2 40 354 331 327 312 309 319 307 151 254 275 302 30 96 71 13 324 290 276 277 277 276 285 293 293 293 297
7 12 13 17 22 28 37 76 129 138 146 103 59 59 73 105 201 168 177 229 197 194 347 335 293 10 42 45 40 330 337 55 20 4 9 20 37 18 358 358 6 1 315 2 37 343 322 19 29 28 327 337 13 20 317 288 298 44 229 283 20 32 331 334 15 350 330 310 287 217 240 263 284 47 57 331 306 293 278 259 262 269 269 278 284 284 285 291
5 10 18 17 16 20 27 58 141 142 148 91 63 65 76 187 207 154 110 97 143 153 154 172 333 53 58 2 51 70 53 9 4 7 34 43 61 29 7 324 354 6 2 9 26 343 318 149 72 34 248 7 6 340 336 331 317 298 314 13 58 357 302 103 70 95 181 271 279 278 282 282 287 196 91 313 284 277 265 254 254 263 272 278 280 284 287 297
4 16 32 18 13 15 21 48 144 142 123 72 75 85 62 249 220 159 45 22 142 164 151 164 353 29 96 301 13 7 350 348 343 358 48 45 82 44 7 325 7 12 11 359 109 43 315 269 95 357 239 96 7 295 345 349 310 310 17 79 112 216 296 226 302 286 259 281 290 320 295 300 313 339 126 187 253 264 246 246 256 263 272 273 277 287 293 300
356 23 66 18 10 11 22 69 134 127 81 67 79 117 151 172 222 251 308 345 211 206 137 141 23 8 218 203 33 338 328 341 1 25 59 2 77 142 313 347 106 58 1 308 283 93 292 282 107 154 290 43 111 244 222 86 25 23 77 115 182 298 6 308 314 334 327 306 293 293 299 281 245 203 137 174 201 247 238 234 263 272 276 278 281 291 297 303
344 310 88 13 8 16 41 88 129 93 64 83 96 152 158 154 216 248 267 279 243 207 124 143 333 13 196 196 64 311 333 10 17 27 69 12 45 184 267 321 107 78 9 300 302 111 261 306 62 146 252 335 333 242 305 71 55 49 120 140 351 349 338 348 7 314 294 303 307 317 326 279 210 189 192 193 197 208 225 252 276 282 282 281 283 288 296 304
357 355 203 359 5 21 55 62 76 47 55 86 118 152 114 176 188 154 202 254 280 238 144 158 169 154 175 239 316 305 24 36 59 26 37 28 19 177 166 210 232 27 10 341 92 196 240 303 323 121 170 257 354 50 352 357 36 337 201 64 64 95 317 299 109 356 310 301 303 311 301 294 133 161 212 207 199 203 232 280 284 285 285 283 282 283 290 298
35 17 225 351 358 0 56 48 48 37 67 97 86 109 121 154 145 115 190 237 304 320 346 108 128 133 152 160 293 192 119 59 102 76 133 175 212 186 108 167 267 13 321 197 128 306 274 208 295 307 247 208 85 66 355 329 331 311 307 26 34 3 313 295 358 45 359 297 272 309 294 293 352 45 266 293 5 311 313 301 285 285 288 289 286 281 284 290
68 13 259 342 351 356 79 50 43 26 75 98 43 88 121 109 119 85 149 198 280 268 55 70 87 87 117 117 69 189 176 115 137 171 197 205 241 13 91 91 5 331 302 302 55 345 301 256 275 286 311 70 82 84 45 312 246 255 279 304 83 166 236 300 330 38 152 246 45 57 279 278 13 63 291 309 314 297 301 282 275 285 289 289 289 286 286 285
69 329 309 345 349 29 100 58 74 29 48 331 314 28 42 42 125 114 283 207 236 225 119 94 91 69 121 172 126 166 202 181 181 182 192 213 209 61 74 80 253 261 249 236 121 172 222 321 285 276 248 104 107 121 114 13 246 219 228 198 195 187 53 347 355 14 243 198 163 181 252 257 5 61 285 286 287 287 278 249 262 282 287 288 288 289 289 290
20 260 304 354 357 134 136 67 141 93 70 195 19 63 36 337 104 83 274 218 231 222 142 118 132 76 114 127 113 147 222 203 193 243 225 193 143 54 51 54 229 230 238 312 41 149 225 67 314 305 323 98 134 146 167 331 251 245 238 170 182 118 94 96 110 101 262 214 177 231 262 252 127 121 224 245 280 294 284 249 242 270 285 292 293 294 296 296
31 226 254 1 25 66 102 92 138 131 147 149 105 109 126 79 65 344 291 133 9 298 108 94 61 86 102 95 75 80 356 335 178 183 184 181 161 57 37 19 251 234 221 316 328 228 272 333 258 309 336 323 321 338 325 320 242 217 195 175 187 162 153 169 143 179 245 201 170 219 256 280 271 217 223 239 261 288 291 286 269 264 275 285 290 296 300 300
117 65 295 347 31 56 74 6 85 117 150 151 125 152 158 102 105 265 67 87 92 321 40 72 132 105 102 124 76 60 352 340 36 126 200 188 151 113 8 9 265 196 174 143 17 184 169 264 229 242 264 274 298 322 59 309 279 253 208 187 188 189 192 190 162 215 209 161 211 234 249 280 285 279 281 288 283 281 289 297 298 290 285 285 287 293 296 293
105 87 359 320 15 47 74 42 47 97 149 170 144 149 148 124 105 137 188 266 134 159 19 54 154 179 158 160 153 118 358 341 6 126 206 172 110 107 6 320 10 202 186 170 2 93 189 255 215 217 246 258 282 295 235 227 265 264 255 214 187 187 191 192 211 211 142 155 260 244 221 254 275 287 298 301 300 298 298 299 298 296 295 292 291 293 291 288
40 129 93 312 331 38 51 36 51 79 89 87 79 122 143 152 160 174 189 133 85 227 214 114 222 219 190 167 164 149 141 329 312 218 188 142 146 146 151 217 251 308 236 177 344 356 227 273 195 181 256 264 267 272 262 249 256 258 256 245 214 192 188 202 222 209 169 223 256 262 244 262 275 287 290 291 295 301 302 299 295 289 287 284 284 286 284 283
74 111 77 344 55 110 33 5 76 93 87 80 88 147 168 177 180 183 143 120 159 258 214 220 234 206 182 179 152 146 177 201 249 235 190 158 181 182 177 195 187 284 227 164 49 327 222 252 257 202 274 272 258 254 250 247 258 260 244 234 227 214 203 212 229 221 209 240 258 269 279 282 280 278 277 282 290 294 292 290 289 282 277 276 275 276 275 276
132 143 132 75 79 96 74 11 86 91 72 60 151 167 175 182 181 183 175 169 173 179 190 220 219 158 150 170 178 196 206 190 170 214 182 164 193 207 209 198 140 142 204 167 104 314 262 287 68 54 288 281 229 186 219 233 251 265 259 235 217 219 219 223 235 231 226 245 259 267 276 280 273 267 267 273 281 286 282 281 282 280 276 276 275 274 274 276
115 125 136 117 89 45 340 71 65 100 131 201 191 162 188 203 187 169 173 205 193 176 189 191 159 124 111 174 212 232 212 180 145 154 172 173 187 181 189 181 146 152 173 175 161 188 222 254 94 32 300 282 111 79 284 271 261 261 270 254 209 202 215 220 222 214 212 227 245 259 264 261 260 267 276 267 257 260 271 274 279 283 280 273 270 272 276 278
120 109 125 109 91 285 283 105 84 262 193 212 145 151 190 222 187 172 170 188 194 214 219 179 148 125 122 199 225 236 188 160 125 94 124 108 72 76 76 77 103 136 162 163 164 181 198 215 147 53 289 269 43 350 312 303 290 255 267 239 185 187 212 231 228 214 208 212 218 223 236 250 268 296 288 276 262 252 260 266 270 278 282 280 274 270 272 274